METOP-C

Last updated on Sun Jun 21 2026 00:02:47 GMT+0000 (Coordinated Universal Time)

1 43689U 18087A 26171.44664144 .00000064 00000+0 49212-4 0 9995 2 43689 98.6643 230.9907 0001880 125.1991 234.9363 14.21512882395295
UTC large
Height (km)
Speed (km/s)
/
Latitude / Longitude
Inclination (degrees)
Orbital Period (minutes)
Azimuth
Elevation
Range (km)
Doppler Factor

Next 0 passes for location: London (51.5072 / 0.1276)

No passes found over London.
METOP-C